Weather History for Sheridan, WY

Change the Weather History Date:

Friday, July 5, 2013

  Actual Average Record
Temperature  
Mean Temperature 70 °F 68 °F  
Max Temperature 83 °F 85 °F 104 °F (1936)
Min Temperature 57 °F 51 °F 40 °F (1915)
Degree Days  
Heating Degree Days 0 1  
Month to date heating degree days 0 9  
Since 1 June heating degree days 120 158  
Since 1 July heating degree days 0 9  
Cooling Degree Days 5 4  
Month to date cooling degree days 36 20  
Year to date cooling degree days 92 70  
Since 1 June cooling degree days 84 66  
Growing Degree Days 20 (Base 50)    
Moisture  
Dew Point 57 °F    
Average Humidity 66    
Maximum Humidity 86    
Minimum Humidity 45    
Precipitation  
Precipitation 0.01 in 0.04 in 0.89 in (1922)
Month to date precipitation 0.03 0.20  
Year to date precipitation 9.54 8.35  
Sea Level Pressure  
Sea Level Pressure 29.77 in    
Wind  
Wind Speed 6 mph (WNW)    
Max Wind Speed 26 mph    
Max Gust Speed 31 mph    
Visibility 10 miles    
Events Rain , Thunderstorm    
T = Trace of Precipitation, MM = Missing Value Source: NWS Daily Summary

Daily Weather History Graph

Daily Weather History Graph

Search for Another Location

Airport:

Trip Planner

Search our weather history database for the weather conditions in past years. The results will help you decide how hot, cold, wet, or windy it might be!

Date:

Astronomy

Jul. 05, 2013 Rise Set
Actual Time 5:28 AM MDT 8:56 PM MDT
Civil Twilight 4:52 AM MDT 9:32 PM MDT
Nautical Twilight 4:03 AM MDT 10:20 PM MDT
Astronomical Twilight 3:02 AM MDT 11:22 PM MDT
Moon 3:32 AM MDT (7/5) 6:51 PM MDT (7/5)
Length of Visible Light 16h 40m
Length of Day
15h 27m
Waning Crescent, 6% of the Moon is Illuminated
Jul 5
Waning Crescent
Jul 8
New
Jul 15
First Quarter
Jul 22
Full
Jul 29
Last Quarter

Hourly Weather History & Observations

Time (MDT) Temp. Heat Index Dew Point Humidity Pressure Visibility Wind Dir Wind Speed Gust Speed Precip Events Conditions
12:53 AM 63.0 °F - 59.0 °F 87% 29.80 in 10.0 mi SW 4.6 mph - 0.00 in Rain Light Rain
1:53 AM 64.0 °F - 57.0 °F 78% 29.75 in 10.0 mi SSE 10.4 mph - 0.00 in   Mostly Cloudy
2:53 AM 62.1 °F - 55.9 °F 80% 29.72 in 10.0 mi South 5.8 mph - N/A   Clear
3:53 AM 59.0 °F - 54.0 °F 83% 29.70 in 10.0 mi Calm Calm - N/A   Clear
4:53 AM 59.0 °F - 53.1 °F 81% 29.69 in 10.0 mi Variable 3.5 mph - N/A   Clear
5:53 AM 57.0 °F - 53.1 °F 87% 29.70 in 10.0 mi NNW 3.5 mph - N/A   Clear
6:53 AM 61.0 °F - 55.9 °F 83% 29.71 in 10.0 mi Calm Calm - N/A   Clear
7:53 AM 64.9 °F - 57.0 °F 75% 29.72 in 10.0 mi Calm Calm - N/A   Clear
8:53 AM 70.0 °F - 57.9 °F 65% 29.72 in 10.0 mi Calm Calm - N/A   Clear
9:53 AM 71.1 °F - 57.9 °F 63% 29.73 in 10.0 mi Calm Calm - N/A   Clear
10:53 AM 72.0 °F - 60.1 °F 66% 29.75 in 10.0 mi West 3.5 mph - N/A   Clear
11:53 AM 75.0 °F - 60.1 °F 60% 29.77 in 10.0 mi NW 9.2 mph - N/A   Clear
12:53 PM 81.0 °F 81.1 °F 57.9 °F 45% 29.76 in 10.0 mi NNW 13.8 mph 19.6 mph N/A   Scattered Clouds
1:53 PM 75.9 °F - 55.9 °F 50% 29.79 in 10.0 mi NW 17.3 mph 28.8 mph N/A   Scattered Clouds
2:49 PM 75.2 °F - 57.2 °F 53% 29.89 in 10.0 mi NW 10.4 mph - N/A Thunderstorm Overcast
2:53 PM 75.0 °F - 57.0 °F 53% 29.79 in 10.0 mi NW 8.1 mph - N/A Thunderstorm Overcast
3:04 PM 75.2 °F - 59.0 °F 57% 29.89 in 10.0 mi NW 10.4 mph - 0.01 in Rain Light Rain
3:53 PM 75.9 °F - 55.0 °F 48% 29.78 in 10.0 mi NW 16.1 mph - 0.01 in   Overcast
4:17 PM 75.2 °F - 55.4 °F 50% 29.88 in 10.0 mi NW 15.0 mph - N/A Thunderstorm Overcast
4:32 PM 71.6 °F - 55.4 °F 57% 29.90 in 10.0 mi NW 17.3 mph - 0.00 in Rain Light Rain
4:49 PM 71.6 °F - 57.2 °F 60% 29.90 in 10.0 mi NW 16.1 mph 23.0 mph 0.00 in Thunderstorm Overcast
4:53 PM 70.0 °F - 57.9 °F 65% 29.82 in 10.0 mi NW 16.1 mph - 0.00 in Rain , Thunderstorm Light Rain
5:10 PM 66.2 °F - 59.0 °F 78% 29.89 in 10.0 mi WNW 5.8 mph - 0.00 in Rain Light Rain
5:53 PM 69.1 °F - 62.1 °F 78% 29.79 in 10.0 mi SSW 10.4 mph - 0.00 in   Partly Cloudy
6:53 PM 71.1 °F - 59.0 °F 66% 29.75 in 10.0 mi NE 4.6 mph - N/A   Clear
7:53 PM 72.0 °F - 57.9 °F 61% 29.73 in 10.0 mi East 3.5 mph - N/A   Clear
8:53 PM 64.9 °F - 59.0 °F 81% 29.74 in 10.0 mi SSW 8.1 mph - N/A   Clear
9:53 PM 66.0 °F - 55.9 °F 70% 29.75 in 10.0 mi Calm Calm - N/A   Clear
10:53 PM 64.0 °F - 59.0 °F 84% 29.74 in 10.0 mi ESE 4.6 mph - 0.00 in Rain Light Rain
11:53 PM 64.0 °F - 57.9 °F 80% 29.75 in 10.0 mi Calm Calm - 0.00 in   Partly Cloudy